Albert Lea, MN

5:53 PM CDT on April 28, 2017 (GMT -0500)
Albert Lea Municipal

Weather History for KAEL - July, 2013

Change the Weather History Date:

Wednesday, July 17, 2013

  Actual Average Record
Temperature  
Mean Temperature 82 °F -  
Max Temperature 91 °F 78 °F 140 °F (1998)
Min Temperature 73 °F 60 °F 35 °F (2000)
Cooling Degree Days 17    
Growing Degree Days 32 (Base 50)    
Moisture  
Dew Point 68 °F    
Average Humidity 64    
Maximum Humidity 89    
Minimum Humidity 41    
Precipitation  
Precipitation 0.00 in - - ()
Sea Level Pressure  
Sea Level Pressure 30.25 in    
Wind  
Wind Speed 2 mph (SW)    
Max Wind Speed 8 mph    
Max Gust Speed -    
Visibility 10 miles    
Events      
Averages and records for this station are not official NWS values.
T = Trace of Precipitation, MM = Missing Value Source: NWS Daily Summary

Daily Weather History Graph

Daily Weather History Graph

Search for Another Location

Airport or City:

Trip Planner

Search our weather history database for the weather conditions in past years. The results will help you decide how hot, cold, wet, or windy it might be!

Date:

Astronomy

Jul. 17, 2013 Rise Set
Actual Time 5:47 AM CDT 8:51 PM CDT
Civil Twilight 5:13 AM CDT 9:25 PM CDT
Nautical Twilight 4:29 AM CDT 10:09 PM CDT
Astronomical Twilight 3:36 AM CDT 11:01 PM CDT
Moon 3:38 PM CDT (7/17) 12:58 AM CDT (7/17)
Length of Visible Light 16h 12m
Length of Day
15h 03m
Waxing Gibbous, 67% of the Moon is Illuminated
Jul 17
Waxing Gibbous
Jul 22
Full
Jul 29
Last Quarter
Aug 6
New
Aug 14
First Quarter

Hourly Weather History & Observations

Time (CDT) Temp. Heat Index Dew Point Humidity Pressure Visibility Wind Dir Wind Speed Gust Speed Precip Events Conditions
12:13 AM 78.8 °F - 69.8 °F 74% 30.26 in 10.0 mi Calm Calm - N/A   Clear
12:33 AM 78.8 °F - 69.8 °F 74% 30.27 in 10.0 mi Calm Calm - N/A   Clear
12:54 AM 75.2 °F - 69.8 °F 83% 30.27 in 10.0 mi Calm Calm - N/A   Scattered Clouds
1:13 AM 77.0 °F - 71.6 °F 83% 30.27 in 10.0 mi Calm Calm - N/A   Scattered Clouds
1:33 AM 77.0 °F - 71.6 °F 83% 30.27 in 10.0 mi Calm Calm - N/A   Clear
1:54 AM 75.2 °F - 71.6 °F 89% 30.27 in 10.0 mi South 3.5 mph - N/A   Clear
2:13 AM 75.2 °F - 69.8 °F 83% 30.27 in 10.0 mi Calm Calm - N/A   Clear
2:33 AM 73.4 °F - 69.8 °F 88% 30.27 in 10.0 mi Calm Calm - N/A   Clear
2:54 AM 73.4 °F - 69.8 °F 88% 30.27 in 10.0 mi Calm Calm - N/A   Clear
3:13 AM 73.4 °F - 69.8 °F 88% 30.27 in 7.0 mi Calm Calm - N/A   Clear
3:33 AM 73.4 °F - 69.8 °F 88% 30.27 in 7.0 mi Calm Calm - N/A   Clear
3:54 AM 73.4 °F - 69.8 °F 88% 30.27 in 7.0 mi Calm Calm - N/A   Clear
4:13 AM 73.4 °F - 69.8 °F 88% 30.27 in 10.0 mi Calm Calm - N/A   Clear
4:33 AM 75.2 °F - 69.8 °F 83% 30.28 in 10.0 mi SSW 3.5 mph - N/A   Clear
4:54 AM 75.2 °F - 69.8 °F 83% 30.28 in 10.0 mi Calm Calm - N/A   Clear
5:13 AM 73.4 °F - 69.8 °F 88% 30.28 in 10.0 mi Calm Calm - N/A   Clear
5:33 AM 73.4 °F - 69.8 °F 88% 30.28 in 7.0 mi Calm Calm - N/A   Clear
5:54 AM 73.4 °F - 69.8 °F 88% 30.29 in 7.0 mi Calm Calm - N/A   Clear
6:13 AM 73.4 °F - 69.8 °F 88% 30.29 in 10.0 mi Calm Calm - N/A   Clear
6:33 AM 73.4 °F - 69.8 °F 88% 30.29 in 10.0 mi Calm Calm - N/A   Clear
6:54 AM 75.2 °F - 69.8 °F 83% 30.29 in 10.0 mi Calm Calm - N/A   Clear
7:13 AM 78.8 °F - 69.8 °F 74% 30.29 in 10.0 mi Calm Calm - N/A   Clear
7:33 AM 78.8 °F - 69.8 °F 74% 30.29 in 10.0 mi SW 3.5 mph - N/A   Clear
7:54 AM 78.8 °F - 68.0 °F 69% 30.30 in 10.0 mi SSW 4.6 mph - N/A   Clear
8:13 AM 80.6 °F 83.9 °F 69.8 °F 70% 30.30 in 10.0 mi Calm Calm - N/A   Clear
8:33 AM 80.6 °F 83.9 °F 69.8 °F 70% 30.30 in 10.0 mi SW 3.5 mph - N/A   Clear
8:53 AM 82.4 °F 86.3 °F 69.8 °F 66% 30.30 in 10.0 mi WSW 3.5 mph - N/A   Clear
9:13 AM 84.2 °F 88.4 °F 69.8 °F 62% 30.30 in 10.0 mi WSW 4.6 mph - N/A   Clear
9:34 AM 84.2 °F 87.3 °F 68.0 °F 58% 30.30 in 10.0 mi WSW 4.6 mph - N/A   Clear
9:53 AM 84.2 °F 87.3 °F 68.0 °F 58% 30.30 in 10.0 mi WSW 5.8 mph - N/A   Clear
10:13 AM 86.0 °F 89.4 °F 68.0 °F 55% 30.29 in 7.0 mi SW 4.6 mph - N/A   Clear
10:34 AM 87.8 °F 90.4 °F 66.2 °F 49% 30.29 in 10.0 mi SW 4.6 mph - N/A   Clear
10:53 AM 87.8 °F 90.4 °F 66.2 °F 49% 30.29 in 10.0 mi SW 3.5 mph - N/A   Clear
11:13 AM 87.8 °F 92.6 °F 69.8 °F 55% 30.30 in - SW 4.6 mph - N/A   Clear
11:33 AM 87.8 °F 91.4 °F 68.0 °F 52% 30.30 in 10.0 mi SSW 4.6 mph - N/A   Unknown
11:53 AM 87.8 °F 91.4 °F 68.0 °F 52% 30.29 in 10.0 mi WSW 6.9 mph - N/A   Clear
12:13 PM 89.6 °F 92.2 °F 66.2 °F 46% 30.29 in 10.0 mi WSW 3.5 mph - N/A   Clear
12:33 PM 89.6 °F 92.2 °F 66.2 °F 46% 30.29 in 10.0 mi SW 4.6 mph - N/A   Clear
12:54 PM 89.6 °F 91.1 °F 64.4 °F 43% 30.29 in 10.0 mi WSW 5.8 mph - N/A   Clear
1:13 PM 89.6 °F 92.2 °F 66.2 °F 46% 30.28 in 10.0 mi SSW 5.8 mph - N/A   Clear
1:33 PM 89.6 °F 92.2 °F 66.2 °F 46% 30.28 in 10.0 mi SSW 8.1 mph - N/A   Clear
1:53 PM 91.4 °F 94.0 °F 66.2 °F 43% 30.27 in 10.0 mi WSW 4.6 mph - N/A   Clear
2:13 PM 91.4 °F 94.0 °F 66.2 °F 43% 30.26 in 10.0 mi SSW 5.8 mph - N/A   Clear
2:34 PM 91.4 °F 93.2 °F 64.4 °F 41% 30.26 in 10.0 mi WSW 3.5 mph - N/A   Clear
2:53 PM 91.4 °F 93.2 °F 64.4 °F 41% 30.25 in 10.0 mi SW 5.8 mph - N/A   Clear
3:13 PM 91.4 °F 94.0 °F 66.2 °F 43% 30.25 in 10.0 mi SW 4.6 mph - N/A   Clear
3:34 PM 91.4 °F 94.0 °F 66.2 °F 43% 30.24 in 10.0 mi SW 4.6 mph - N/A   Clear
3:53 PM 91.4 °F 94.0 °F 66.2 °F 43% 30.23 in 10.0 mi SSW 8.1 mph - N/A   Clear
4:13 PM 91.4 °F 94.0 °F 66.2 °F 43% 30.23 in 10.0 mi SSW 4.6 mph - N/A   Clear
4:34 PM 91.4 °F 94.0 °F 66.2 °F 43% 30.22 in 10.0 mi SSW 4.6 mph - N/A   Scattered Clouds
4:53 PM 91.4 °F 94.0 °F 66.2 °F 43% 30.21 in 10.0 mi WSW 4.6 mph - N/A   Clear
5:13 PM 91.4 °F 94.0 °F 66.2 °F 43% 30.21 in 10.0 mi WSW 4.6 mph - N/A   Scattered Clouds
5:34 PM 91.4 °F 94.0 °F 66.2 °F 43% 30.21 in 10.0 mi South 4.6 mph - N/A   Clear
5:53 PM 89.6 °F 92.2 °F 66.2 °F 46% 30.20 in 10.0 mi SSW 3.5 mph - N/A   Scattered Clouds
6:13 PM 89.6 °F 92.2 °F 66.2 °F 46% 30.20 in 10.0 mi SSW 4.6 mph - N/A   Clear
6:34 PM 89.6 °F 92.2 °F 66.2 °F 46% 30.19 in 10.0 mi SSW 4.6 mph - N/A   Clear
6:53 PM 89.6 °F 93.4 °F 68.0 °F 49% 30.19 in 10.0 mi SSW 4.6 mph - N/A   Clear
7:13 PM 89.6 °F 93.4 °F 68.0 °F 49% 30.18 in 10.0 mi SSW 4.6 mph - N/A   Clear
7:34 PM 87.8 °F 91.4 °F 68.0 °F 52% 30.18 in 10.0 mi South 4.6 mph - N/A   Clear
7:53 PM 87.8 °F 91.4 °F 68.0 °F 52% 30.18 in 10.0 mi South 5.8 mph - N/A   Scattered Clouds
8:13 PM 86.0 °F 90.4 °F 69.8 °F 58% 30.18 in 10.0 mi South 6.9 mph - N/A   Scattered Clouds
8:33 PM 84.2 °F 87.3 °F 68.0 °F 58% 30.18 in 10.0 mi South 8.1 mph - N/A   Scattered Clouds
8:53 PM 84.2 °F 88.4 °F 69.8 °F 62% 30.18 in 10.0 mi South 6.9 mph - N/A   Clear
9:14 PM 82.4 °F 86.3 °F 69.8 °F 66% 30.18 in 10.0 mi South 4.6 mph - N/A   Clear
9:33 PM 82.4 °F 86.3 °F 69.8 °F 66% 30.18 in 10.0 mi South 3.5 mph - N/A   Clear
9:53 PM 82.4 °F 86.3 °F 69.8 °F 66% 30.18 in 10.0 mi SSW 3.5 mph - N/A   Scattered Clouds
10:14 PM 80.6 °F 83.9 °F 69.8 °F 70% 30.19 in 10.0 mi Calm Calm - N/A   Clear
10:33 PM 80.6 °F 83.9 °F 69.8 °F 70% 30.18 in 10.0 mi Calm Calm - N/A   Clear
10:53 PM 80.6 °F 83.9 °F 69.8 °F 70% 30.18 in 10.0 mi Calm Calm - N/A   Clear
11:14 PM 80.6 °F 83.9 °F 69.8 °F 70% 30.18 in 10.0 mi Calm Calm - N/A   Clear
11:33 PM 80.6 °F 83.9 °F 69.8 °F 70% 30.17 in 10.0 mi SSW 3.5 mph - N/A   Clear
11:53 PM 80.6 °F 83.9 °F 69.8 °F 70% 30.17 in 10.0 mi SSW 3.5 mph - N/A   Clear